This is the latest recevied weather packets stored in our database for station/object SQ9NFI-4. If no packets are shown the sender has not sent any weather packets the latest 10 day(s).
| Time | Temp. | Humidity | Pressure | Rain* | Wind** | Luminosity | Snow |
|---|---|---|---|---|---|---|---|
| 1777718416 | 22.78° C | 29% | 1024.7 hPa | 0 mm | - | 705 W/m² | - |
| 1777718116 | 22.78° C | 29% | 1024.7 hPa | 0 mm | - | 708 W/m² | - |
| 1777717816 | 22.78° C | 27% | 1024.7 hPa | 0 mm | - | 711 W/m² | - |
| 1777717516 | 22.22° C | 28% | 1024.7 hPa | 0 mm | - | 708 W/m² | - |
| 1777717216 | 22.22° C | 30% | 1024.7 hPa | 0 mm | - | 705 W/m² | - |
| 1777716916 | 21.67° C | 29% | 1024.7 hPa | 0 mm | - | 705 W/m² | - |
| 1777716616 | 22.22° C | 28% | 1025.1 hPa | 0 mm | - | 705 W/m² | - |
| 1777716316 | 22.78° C | 27% | 1025.1 hPa | 0 mm | - | 700 W/m² | - |
| 1777716016 | 22.22° C | 29% | 1025.1 hPa | 0 mm | - | 700 W/m² | - |
| 1777715716 | 21.67° C | 30% | 1025.1 hPa | 0 mm | - | 700 W/m² | - |
| 1777715416 | 21.67° C | 32% | 1025.4 hPa | 0 mm | - | 691 W/m² | - |
| 1777715116 | 21.11° C | 32% | 1025.4 hPa | 0 mm | - | 688 W/m² | - |
| 1777714216 | 21.67° C | 32% | 1025.4 hPa | 0 mm | - | 677 W/m² | - |
| 1777713916 | 21.67° C | 29% | 1025.4 hPa | 0 mm | - | 674 W/m² | - |
| 1777713316 | 21.67° C | 34% | 1025.4 hPa | 0 mm | - | 663 W/m² | - |
| 1777713016 | 21.67° C | 34% | 1025.4 hPa | 0 mm | - | 660 W/m² | - |
| 1777712716 | 21.67° C | 34% | 1025.4 hPa | 0 mm | - | 651 W/m² | - |
| 1777712416 | 21.11° C | 33% | 1025.4 hPa | 0 mm | - | 643 W/m² | - |
| 1777712116 | 21.67° C | 33% | 1025.4 hPa | 0 mm | - | 634 W/m² | - |
| 1777711816 | 21.67° C | 34% | 1025.4 hPa | 0 mm | - | 620 W/m² | - |
| 1777711516 | 21.11° C | 34% | 1025.4 hPa | 0 mm | - | 626 W/m² | - |
| 1777711216 | 21.11° C | 35% | 1025.4 hPa | 0 mm | - | 614 W/m² | - |
| 1777710916 | 21.67° C | 36% | 1025.4 hPa | 0 mm | - | 606 W/m² | - |
| 1777710616 | 20.56° C | 35% | 1025.4 hPa | 0 mm | - | 577 W/m² | - |
| 1777710316 | 20.56° C | 36% | 1025.4 hPa | 0 mm | - | 589 W/m² | - |
* Rain latest hour (hover to see other rain measurements)
** Current wind speed in m/s (hover to see current wind gust speed)